TimeCDT,TemperatureF,Dew PointF,Humidity,Sea Level PressureIn,VisibilityMPH,Wind Direction,Wind SpeedMPH,Gust SpeedMPH,PrecipitationIn,Events,Conditions,WindDirDegrees,DateUTC
12:51 AM,82.9,55.0,38,29.88,10.0,NNE,4.6,-,N/A,,Clear,30,2013-07-01 05:51:00
1:51 AM,81.0,55.0,41,29.88,10.0,NE,4.6,-,N/A,,Clear,40,2013-07-01 06:51:00
2:51 AM,79.0,54.0,42,29.88,10.0,Variable,4.6,-,N/A,,Clear,0,2013-07-01 07:51:00
3:51 AM,78.1,54.0,43,29.89,10.0,NNE,4.6,-,N/A,,Clear,30,2013-07-01 08:51:00
4:51 AM,75.9,53.1,45,29.91,10.0,NE,3.5,-,N/A,,Clear,40,2013-07-01 09:51:00
5:51 AM,73.9,54.0,50,29.93,10.0,Calm,Calm,-,N/A,,Clear,0,2013-07-01 10:51:00
6:51 AM,73.9,55.0,52,29.95,10.0,North,3.5,-,N/A,,Clear,360,2013-07-01 11:51:00
7:51 AM,75.9,55.9,50,29.97,10.0,Variable,3.5,-,N/A,,Partly Cloudy,0,2013-07-01 12:51:00
8:51 AM,80.1,55.9,43,29.98,10.0,Variable,3.5,-,N/A,,Clear,0,2013-07-01 13:51:00
9:51 AM,82.9,55.9,39,29.99,10.0,Variable,4.6,-,N/A,,Clear,0,2013-07-01 14:51:00
10:51 AM,84.9,53.1,33,29.99,10.0,North,6.9,-,N/A,,Clear,360,2013-07-01 15:51:00
11:51 AM,88.0,53.1,30,29.97,10.0,North,9.2,-,N/A,,Clear,10,2013-07-01 16:51:00
12:51 PM,88.0,50.0,27,29.97,10.0,North,9.2,20.7,N/A,,Clear,10,2013-07-01 17:51:00
1:51 PM,90.0,51.1,26,29.96,10.0,NNE,10.4,24.2,N/A,,Clear,20,2013-07-01 18:51:00
2:51 PM,90.0,52.0,27,29.95,10.0,NNE,10.4,21.9,N/A,,Clear,30,2013-07-01 19:51:00
3:51 PM,88.0,51.1,28,29.95,10.0,North,11.5,19.6,N/A,,Clear,360,2013-07-01 20:51:00
4:51 PM,88.0,51.1,28,29.95,10.0,NW,8.1,16.1,N/A,,Clear,320,2013-07-01 21:51:00
5:51 PM,87.1,51.1,29,29.94,10.0,North,6.9,-,N/A,,Clear,10,2013-07-01 22:51:00
6:51 PM,86.0,52.0,31,29.93,10.0,North,4.6,-,N/A,,Clear,10,2013-07-01 23:51:00
7:51 PM,84.9,54.0,34,29.94,10.0,Calm,Calm,-,N/A,,Clear,0,2013-07-02 00:51:00
8:51 PM,82.9,52.0,34,29.95,10.0,NE,4.6,-,N/A,,Clear,40,2013-07-02 01:51:00
9:51 PM,80.1,52.0,38,29.96,10.0,NNE,3.5,-,N/A,,Clear,30,2013-07-02 02:51:00
10:51 PM,77.0,54.0,45,29.97,10.0,Calm,Calm,-,N/A,,Clear,0,2013-07-02 03:51:00
11:51 PM,75.9,54.0,46,29.98,10.0,Calm,Calm,-,N/A,,Clear,0,2013-07-02 04:51:00